Location: Logan
(41.7360°N, 111.8340°W)
Time: 18:06:37
(UTC-07:00)

Daily predictions for brighter satellites

Satellite Brightness Start Highest point End
(mag) Time Altitude Azimuth Time Altitude Azimuth Time Altitude Azimuth
EO 1 Delta rocket 4.3 17:28:25 10° S 17:33:00 70° W 17:37:47 10° NNW
Cosmos 614 Rocket 4.3 17:28:48 10° SSW 17:34:00 71° WNW 17:39:15 10° NNE
Cosmos 1140 Rocket 4.0 17:28:53 10° SSW 17:34:04 65° WNW 17:39:16 10° NNE
OE (NEXTSAT) 4.5 17:31:38 10° WNW 17:35:07 59° NNE 17:38:36 10° E
Cosmos 1408 3.6 17:31:57 10° NNW 17:35:33 52° W 17:39:04 10° S
SJ-7 4.5 17:33:48 10° SSE 17:37:56 61° ENE 17:42:03 10° N
BREEZE M DEB (TANK) 2.7 17:35:59 10° WNW 17:40:15 51° SW 17:42:30 10° SE
Cosmos 1869 4.3 17:36:34 10° SSW 17:40:23 49° W 17:44:14 10° N
Cosmos 1733 Rocket 3.7 17:36:56 10° N 17:40:59 34° ENE 17:45:01 10° SE
CZ-4 R/B 1.7 17:37:31 10° SE 17:41:11 40° ENE 17:44:49 10° N
ALOS 3.7 17:38:43 10° ESE 17:41:42 17° ENE 17:44:40 10° NNE
Cosmos 2082 Rocket 4.0 17:40:34 10° NNE 17:42:04 11° NE 17:43:32 10° ENE
Cosmos 1862 Rocket 4.2 17:44:16 10° SSE 17:48:15 35° E 17:52:17 10° NNE
Cosmos 2061 Rocket 4.2 17:42:51 10° S 17:49:07 81° W 17:55:30 10° N
Cosmos 1725 Rocket 4.1 17:44:48 10° S 17:50:59 62° E 17:57:10 10° NNE
Lacrosse 5 2.7 17:47:18 10° WSW 17:52:10 47° NW 17:57:05 10° NE
ERBS 4.1 17:51:28 10° NNW 17:53:50 17° NNE 17:55:23 13° ENE
Cosmos 972 Rocket 4.2 17:49:17 10° N 17:54:02 42° ENE 17:58:39 10° SE
SMAP 3.0 17:49:39 10° SSE 17:54:17 81° ENE 17:58:58 10° N
CSL-04 Rocket 3.8 17:51:07 10° S 17:56:22 78° WSW 18:01:44 10° NNW
Cosmos 1933 3.3 17:52:50 10° S 17:56:51 69° E 18:00:53 10° NNE
Lacrosse 4 Rocket 3.8 17:53:56 10° NW 17:57:23 27° WSW 18:00:49 10° SSW
Tsikada Rocket 4.0 17:53:09 10° N 17:59:16 64° E 18:05:22 10° SSE
CENTAUR R/B 2.5 17:53:33 10° SSW 17:59:27 68° ESE 18:06:12 10° NE
CZ-3A R/B 4.5 17:38:18 10° WNW 18:00:44 61° NNE 18:07:06 10° ESE
Cosmos 1340 2.5 17:59:37 10° S 18:03:22 75° E 18:07:09 10° NNE
COSMOS 2406 3.2 17:59:24 10° NNW 18:05:10 69° ENE 18:10:51 10° SSE
Cosmos 1763 Rocket 4.1 18:03:01 10° N 18:07:48 34° ENE 18:12:30 10° SE
Cosmos 1814 Rocket 4.5 18:03:15 10° N 18:08:17 39° ENE 18:13:17 10° SE
Cosmos 1437 2.9 18:07:25 10° S 18:10:28 48° E 18:13:32 10° NNE
Meteor 1-26 Rocket 4.3 18:07:48 10° S 18:13:17 56° E 18:18:42 10° NNE
TSX-5 3.9 18:14:33 10° NNW 18:17:54 69° WSW 18:21:55 10° SSE
Cosmos 2208 Rocket 4.4 18:13:58 10° NNW 18:19:08 68° WSW 18:24:20 10° S
COSMO-SKYMED 1 2.7 18:16:27 10° NNE 18:20:43 54° E 18:24:58 10° S
NOAA 12 4.4 18:16:30 10° SE 18:21:31 43° ENE 18:26:32 10° N
ERS-2 2.0 18:18:34 10° SSE 18:22:14 75° ENE 18:25:56 10° N
Ariane Rocket 4.1 18:17:47 10° S 18:22:42 48° W 18:27:38 10° NNW
BREEZE-M DEB (TANK) 2.9 18:21:11 10° SSW 18:23:04 28° SE 18:23:17 27° SE
Okean 1-7 4.3 18:20:23 10° SE 18:22:59 21° ESE 18:22:59 21° ESE
Cosmos 1844 Rocket 2.9 18:18:06 10° SSW 18:23:45 74° WNW 18:29:24 10° NNE
METEOR-M 4.0 18:18:56 10° SSE 18:24:14 73° ENE 18:29:34 10° N
YAOGAN 1 2.5 18:20:08 10° SSE 18:24:27 89° WSW 18:28:49 10° NNW
MONITOR-E 4.1 18:24:25 10° SSE 18:27:25 57° ENE 18:30:26 10° N
SPOT 3 Rocket 3.6 18:22:58 10° SSE 18:28:04 57° ENE 18:33:11 10° N
Cosmos 1486 Rocket 4.4 18:27:07 10° S 18:31:58 41° ESE 18:34:49 22° NE
Cosmos 1461 3.8 18:32:03 10° NW 18:36:39 57° WSW 18:41:17 10° SSE
Cosmos 371 Rocket 4.3 18:32:05 10° NNW 18:36:42 48° WSW 18:41:18 10° S
Cosmos 841 Rocket 3.7 18:33:44 10° N 18:38:52 48° ENE 18:43:56 10° SE
Cosmos 2346 Rocket 4.5 18:33:49 10° N 18:39:58 86° W 18:46:08 10° S
Cosmos 1844 4.0 18:34:25 10° SSW 18:40:10 72° WNW 18:45:59 10° NNE
BREEZE-M DEB (TANK) 3.4 18:39:10 10° NW 18:41:01 23° NNE 18:41:01 23° NNE
Cosmos 1782 3.3 18:38:55 10° SSE 18:42:23 39° ESE 18:42:23 39° ESE
Cosmos 1464 Rocket 4.2 18:39:02 10° SSE 18:44:44 43° E 18:50:27 10° NNE
Cosmos 1703 Rocket 3.6 18:42:29 10° S 18:46:52 57° E 18:49:17 25° NNE
Cosmos 2278 Rocket 2.1 18:42:14 10° S 18:47:49 66° ESE 18:51:19 24° NE
Cosmos 540 Rocket 4.3 18:44:12 10° N 18:47:57 29° NE 18:47:57 29° NE
Cosmos 304 Rocket 3.6 18:44:06 10° NNW 18:48:55 74° ENE 18:53:42 10° SSE
Cosmos 1833 Rocket 3.4 18:44:53 10° N 18:49:37 31° NE 18:49:37 31° NE
FENGYUN 3A 3.5 18:46:56 10° SSE 18:52:21 78° ENE 18:57:46 10° N
CZ-4C R/B 3.9 18:47:31 10° NNW 18:52:54 23° NE 18:53:36 23° NE
EO 1 Del DPAF 3.8 18:50:13 10° N 18:53:59 59° WNW 18:57:45 10° SSW
USA 234 3.4 18:49:45 22° NE 18:54:15 71° NW 19:00:45 10° WSW
Meteor 1-25 Rocket 4.3 18:53:21 10° N 18:59:14 85° W 19:05:03 10° S
Meteor 2-6 Rocket 4.3 18:54:10 10° SSE 18:59:19 48° E 19:00:09 44° ENE
Cosmos 1606 3.1 18:56:26 10° S 18:59:19 49° SSE 18:59:19 49° SSE
Thor Agena Rocket 3.7 19:05:24 48° ESE 19:05:24 48° ESE 19:09:56 10° S
Sich 1 Rocket 3.6 19:01:51 10° N 19:06:16 81° W 19:10:41 10° S
COSMOS 2455 3.3 19:05:07 10° SW 19:11:02 60° WNW 19:15:04 21° NNE
Meteor 1-20 Rocket 4.3 19:05:45 10° NNW 19:11:21 74° W 19:16:49 10° S
Cosmos 1908 Rocket 4.2 19:08:20 10° NNW 19:12:36 55° W 19:16:49 10° S
FengYun 1-2 T 4.1 19:09:33 21° SSE 19:13:15 67° ENE 19:18:46 10° N
BREEZE-M R/B 3.3 19:11:52 10° NW 19:14:05 50° NW 19:14:05 50° NW
ALOS 3.0 19:14:08 10° S 19:18:41 53° W 19:23:16 10° NNW
Meteor 1-10 Rocket 4.1 19:13:28 10° S 19:19:04 78° E 19:21:29 36° NNE
Cosmos 2082 Rocket 2.6 19:21:46 10° NNW 19:26:12 48° NNE 19:26:12 48° NNE
Cosmos 1513 Rocket 4.4 19:24:58 10° S 19:31:20 88° E 19:37:37 10° N
Lacrosse 5 3.9 19:32:55 10° WNW 19:36:15 17° NNW 19:36:49 17° N
Cosmos 1891 Rocket 4.4 19:35:12 10° S 19:41:26 80° W 19:45:02 27° N
CENTAUR R/B 4.1 19:45:20 10° W 19:50:45 29° NW 19:54:07 20° N
Cosmos 2034 Rocket 4.2 19:51:56 10° SSW 19:58:16 70° W 19:59:44 53° NNW
Cosmos 2278 Rocket 4.3 20:28:12 10° W 20:32:25 21° NW 20:33:13 20° NW
CZ-4C R/B 4.1 20:35:21 10° NNW 20:38:48 32° NNW 20:38:48 32° NNW
